Regional Weather Roundup
Issued by NWS Little Rock, AR

Home | Current Version | Previous Version | Graphics & Text | Print | Product List | Glossary Off
Versions: 1 2 3 4 5 6 7 8 9 10 11 12 13 14 15 16 17 18 19 20 21 22 23 24 25 26 27

000
ASUS44 KLZK 301905
RWRLZK

WEATHER ROUNDUP FOR ARKANSAS
NATIONAL WEATHER SERVICE LITTLE ROCK AR
200 PM CDT MON MAY 30 2016

NOTE: "FAIR" INDICATES FEW OR NO CLOUDS BELOW 12,000 FEET WITH NO
SIGNIFICANT WEATHER AND/OR OBSTRUCTIONS TO VISIBILITY.

ARZ001-003-010-029-302000-
NORTHWEST ARKANSAS

CITY           SKY/WX    TMP DP  RH WIND       PRES   REMARKS
FAYETTEVILLE   LGT RAIN  66  65  96 E6        30.07F FOG
FORT SMITH     CLOUDY    73  63  70 E5        30.05F
HARRISON       CLOUDY    72  65  78 W3        30.08F
BENTONVILLE    CLOUDY    70  63  78 CALM      30.08S
ROGERS         CLOUDY    68  66  93 N3        30.08F FOG
SILOAM SPGS    CLOUDY    68  59  73 CALM      30.08F
HIGHFILL       LGT RAIN  70  67  90 E3        30.08S
SPRINGDALE     MOSUNNY   68  66  94 N5        30.10F
$$

ARZ004-005-016-302000-
NORTH CENTRAL ARKANSAS

CITY           SKY/WX    TMP DP  RH WIND       PRES   REMARKS
BATESVILLE     CLOUDY    79  64  61 E12G18    30.06R THUNDER
FLIPPIN        PTSUNNY  N/A N/A N/A W6        30.03S
MTN HOME       CLOUDY    80  65  59 S5        30.04F
$$

ARZ040-041-302000-
WEST CENTRAL ARKANSAS

CITY           SKY/WX    TMP DP  RH WIND       PRES   REMARKS
MENA           CLOUDY    77  66  69 CALM      30.05F
MOUNT IDA      CLOUDY    79  67  66 CALM      30.02F
$$

ARZ009-017-025-026-028-302000-
NORTHEAST ARKANSAS

CITY           SKY/WX    TMP DP  RH WIND       PRES   REMARKS
CORNING        LGT RAIN  86  64  48 SE3       30.04F HX  87
JONESBORO      SUNNY     86  62  44 E5        30.03S HX  86
NEWPORT        PTSUNNY   86  64  47 SE5       30.04F HX  87
WALNUT RIDGE   MOSUNNY   84  63  48 CALM      30.03S HX  85
BLYTHEVILLE    MOSUNNY   86  60  41 S6        30.03F HX  86
$$

ARZ022-023-033-042-044-302000-
CENTRAL ARKANSAS

CITY           SKY/WX    TMP DP  RH WIND       PRES   REMARKS
LITTLE ROCK    CLOUDY    85  67  54 VRB5      30.02F HX  87
N LITTLE ROCK    N/A     83  67  57 CALM      30.01F HX  85
JACKSONVILLE   PTSUNNY   84  69  59 S5        30.02F HX  87
SEARCY         PTSUNNY   84  66  54 SW8       30.04F HX  86
HOT SPRINGS    MOSUNNY   83  67  58 SE5       30.03F HX  85
RUSSELLVILLE   CLOUDY    73  66  78 CALM      30.05F
CLINTON        FAIR      81  68  65 CALM      30.05F
$$

ARZ036-302000-
EAST ARKANSAS

CITY           SKY/WX    TMP DP  RH WIND       PRES   REMARKS
WEST MEMPHIS   SUNNY     87  60  40 MISG      30.01S HX  87
$$

ARZ050-053-066-070-073-302000-
SOUTHWEST ARKANSAS

CITY           SKY/WX    TMP DP  RH WIND       PRES   REMARKS
ARKADELPHIA    FAIR      83  70  64 NE3       30.01F HX  87
CAMDEN         CLOUDY    90  64  43 S3        30.01F HX  91
TEXARKANA      CLOUDY    81  70  69 CALM      30.02F
EL DORADO      CLOUDY    86  70  58 NE6       30.01F HX  90
DE QUEEN       PTSUNNY   77  70  79 E5        30.00F
$$

ARZ056-057-069-302000-
SOUTHEAST ARKANSAS

CITY           SKY/WX    TMP DP  RH WIND       PRES   REMARKS
PINE BLUFF     MOSUNNY   84  68  58 S6        30.02F HX  87
STUTTGART      CLOUDY    84  66  54 SE3       30.03F HX  86
MONTICELLO     CLOUDY    88  68  51 VRB5      30.02F HX  91

$$






USA.gov is the U.S. government's official web portal to all federal, state and local government web resources and services.